Find Starlink 30069

NORAD ID: 56834 Int'l Des: 2023-079 Owner: SPXS Country: US Constellation: starlink operational
LEOCIRCULAR

Live Position

Loading 3D Globe...

About Starlink 30069

Description loading...

Upcoming Passes

Passes for default location (London). Set your location on the main map for personalized predictions.

Altitude History

Loading altitude history...

Two-Line Element Set

1 56834U 23079M 26105.86572391 -.00006659 00000-0 -23246-3 0 9990
2 56834 43.0061 253.7062 0002981 279.4204 80.6311 15.27601593158614
Epoch: Apr 15, 2026 • Age: 14 hours

Current Status

Altitude 488.0 km
Velocity 7.63 km/s
Sub-Earth Point 42.78°N, 42.63°W
Launch Date Jun 4, 2023
Age 2.8 years
Type internet

Technical Details

Classification Payload
Mass 730.00 kg
Dry Mass 700.00 kg
Total Mass 730.00 kg
Length 0.30 m
Diameter 4.10 m
Span 29.00 m
Shape Box + pan
Manufacturer SPXS
Bus Type Starlink V2M
Phase Status In Orbit
Owner/State SPXS/US

Most Searched